Location: Tucson
(32.2217°N, 110.9265°W)
Time: 04:06:50
(UTC-07:00)

Oscar 11 - Pass Details

Date: 05 December 2021
Orbit: 611 x 625 km, 97.6° (Epoch: 19 January)

Event Time Altitude Azimuth Distance (km) Brightness Sun altitude
Rises 04:45:56 0° 32° (NNE) 2,900 10.8 -29.9°
Reaches altitude 10° 04:48:46 10° 52° (NE) 1,986 10.1 -29.3°
Maximum altitude 04:51:42 18° 95° (E) 1,536 9.8 -28.7°
Drops below altitude 10° 04:54:36 10° 137° (SE) 1,971 10.3 -28.1°
Sets 04:57:23 0° 157° (SSE) 2,869 10.9 -27.5°
